Regional Weather Roundup
Issued by NWS

Home | Current Version | Previous Version | Graphics & Text | Print | Product List | Glossary On
Versions: 1 2 3 4 5 6 7 8 9 10 11 12 13 14 15 16 17 18 19 20 21 22 23 24 25 26 27 28 29 30 31 32 33 34 35 36 37 38 39 40 41 42 43 44 45 46 47 48 49 50
000
ASUS44 KMEG 021610
RWRTN
TENNESSEE HOURLY STATE WEATHER ROUNDUP
NATIONAL WEATHER SERVICE MEMPHIS TN
1100 AM CDT TUE JUN 02 2015

TNZ002-004-019-021-049-052-054-088>092-021700-
WEST TENNESSEE

CITY           SKY/WX    TMP DP  RH WIND       PRES   REMARKS
MEMPHIS INTL   PTSUNNY   71  57  61 NE8       30.09F
NWS MEMPHIS      N/A     71 N/A N/A MISG        N/A
JACKSON        CLOUDY    68  59  73 N6        30.09F
DYERSBURG      CLOUDY    64  48  55 N3        30.11F
PARIS          CLOUDY    64  57  77 N6        30.11S
LEXINGTON      CLOUDY    66  57  72 N6        30.08F
$$

TNZ008-025-027-028-033-062-065-066-021700-
NORTH MIDDLE TENNESSEE

CITY           SKY/WX    TMP DP  RH WIND       PRES   REMARKS
NASHVILLE      CLOUDY    64  59  83 NE6       30.11S HAZE
CLARKSVILLE    CLOUDY    64  57  78 N8        30.11F
SMYRNA         CLOUDY    64  60  87 N7        30.11F
COOKEVILLE     CLOUDY    64  61  88 N6        30.08S
CROSSVILLE     PTSUNNY   70  60  70 NW9       30.09S
$$

TNZ061-075-076-078-094-096-097-021700-
SOUTH MIDDLE TENNESSEE

CITY           SKY/WX    TMP DP  RH WIND       PRES   REMARKS
FAYETTEVILLE   CLOUDY   N/A N/A N/A MISG      30.09S
TULLAHOMA      CLOUDY    66  61  82 NW3       30.10S
WINCHESTER     CLOUDY    68  63  83 VRB6      30.09S
MCMINNVILLE    CLOUDY    66  64  94 N7        30.09S
COLUMBIA       CLOUDY    66  61  82 NW3       30.08S
SHELBYVILLE    CLOUDY    66  61  82 NW8       30.10S
$$

TNZ017-018-042-046-047-021700-
NORTHEAST TENNESSEE

CITY           SKY/WX    TMP DP  RH WIND       PRES   REMARKS
TRI CITIES     PTSUNNY   73  62  68 CALM      30.06F
ELIZABETHTON   MOSUNNY   72  63  73 CALM      30.06F
$$

TNZ012-013-036-069-073-074-021700-
CENTRAL EAST TENNESSEE

CITY           SKY/WX    TMP DP  RH WIND       PRES   REMARKS
KNOXVILLE      PTSUNNY   74  62  66 CALM      30.04F
OAK RIDGE      PTSUNNY   76  63  64 MISG      30.06F
GATLINBURG     MOSUNNY   75  63  64 VRB5      30.04F
MORRISTOWN     MOSUNNY   64  63  94 E7        30.07F
$$

TNZ083-085-099-021700-
SOUTHEAST TENNESSEE

CITY           SKY/WX    TMP DP  RH WIND       PRES   REMARKS
CHATTANOOGA    PTSUNNY   76  64  66 NW5       30.05F
$$

SKY/WX REPORTED AS FAIR MEANS FEW OR NO CLOUDS BELOW
12 THOUSAND FEET.



USA.gov is the U.S. government's official web portal to all federal, state and local government web resources and services.